Zurück zum Katalog

BEIDOU 3 IGSO-2

AktivNavigationGEO
NORAD 44337·PAYLOAD·🇨🇳 China

Gestartet Jun 24, 2019 von Xichang Satellite Launch Center

Loading…

TLE

AktuellSource: Space-Track

Epoche: Sep 14, 2026, 11:54 UTC

1 44337U 19035A   26257.49625731 -.00000136  00000-0  00000-0 0  9999
2 44337  55.2506 158.0785 0038749 211.3808 282.4523  1.00272753 26566

Verfolge BEIDOU 3 IGSO-2 in Echtzeit mit AllMySat

Download on the App Store